Location: San Vito
(41.8833°N, 12.9833°E)
Time: 14:01:11
(UTC+00:00)

BREEZE-M DEB (TANK) - Pass Details

Date: 17 November 2019
Orbit: 283 x 20938 km, 49.3° (Epoch: 06 December)

Event Time Altitude Azimuth Distance (km) Brightness Sun altitude
Exits shadow 03:47:58 12° 40° (NE) 1,189 4.4 -24.4°
Drops below altitude 10° 03:48:12 10° 43° (NE) 1,285 4.7 -24.4°
Sets 03:49:39 0° 56° (ENE) 1,971 6.0 -24.1°
